User: anonymous   Login
Location: Natural Bridges National Monument
(37.6093°N, 109.9767°W)
Time: 09:05:17
(UTC-07:00)
Language:

Cosmos 1727 Rocket - Orbit

View from above orbital plane
View from above orbital plane
View from above satellite
View from above satellite

Ground track
Ground track

The orbit data is extracted from the following two-line orbital elements,

1 16511U 86008B   17348.83094545 +.00000010 +00000-0 -56984-5 0  9996
2 16511 082.9459 085.9621 0025217 136.2132 342.6753 13.75817079600856
Epoch (UTC): 14 December 2017 19:56:33
Eccentricity: 0.0025217
inclination: 82.9459°
perigee height: 960 km
apogee height: 997 km
right ascension of ascending node: 85.9621°
argument of perigee: 136.2132°
revolutions per day: 13.75817079
mean anomaly at epoch: 342.6753°
orbit number at epoch: 60085

The dashed part of the orbit path shows where the satellite is in the earth's shadow,  

DLR